DELTA 1 DEB, 10661

Orbit data source: Space-Track

DELTA 1 DEB, 10661 is space debris in SSO originally from a launch on Thu, 29 Jul 1976 UTC launched from the Air Force Western Test Range (AFWTR). Debris objects in space refer to the collection of defunct objects orbiting the Earth. Examples of debris include non-operational satellites, rocket bodies, and fragments generated from explosions, collisions, or faulty payload assembly.

Loading next visibility...
Identifier
10661, 1976-077X
Orbit
SSO
Country
Flag of USUS
Related business
Manufacturer
Unknown
Mission
Spacecraft
Bus & Motor
Unknown
Mass
Unknown
Launch date (UTC)
1976-07-29 (50 years ago)
Launch vehicle
Unknown
Launch site
Air Force Western Test Range (AFWTR)
Object type
Payload
Rocket body
Debris
Shape & HBR
Unknown shape, 0.1 m
Radar Cross Section
Small (<0.1 m²)

Expand to show TLE details & history
Last TLE update: 12 hours ago

TLE from 12 hours ago
0 DELTA 1 DEB
1 10661U 76077X   26036.35718512  .00000779  00000-0  15174-2 0  9993
2 10661 101.1937 358.6869 0126880 343.6780 170.9591 13.37460179317171
Epoch: 2026-02-05T08:34Z
TLE epoch observation values (Epoch: 2026-02-05T08:34:20.794Z)
Latitude
24.65482°
Longitude
-80.22525°
Altitude
1,215.541 km
Speed
7.203 km/s
True Right ascension
12h 15m 29s
True Declination
24° 31' 57"
Sunlit
Object was in full shadow at epoch
Visualization orbit readout
Latitude
Unknown
Longitude
Unknown
Altitude
Unknown
Speed
Unknown
Apparent Right ascension
Unknown
Apparent Declination
Unknown
Sunlit
N/A
Visualization observer readout
Local Sidereal Time
22:10:34
Azimuth
Unknown
Elevation
Unknown
Doppler factor
Unknown
Orbital elements
Apogee altitude
1,211.242 km
Perigee altitude
1,021.067 km
Semi-major axis
7,494.292 km
Eccentricity
0.01269
Inclination
101.1937°
RAAN
358.6869°
Arg. of periapsis
343.678°
True anomaly
171.18404°
Mean anomaly
170.9591°
Eccentric anomaly
171.07192°
Mean motion
3.34539 °/min
Orbital period
107.61 mins
BSTAR
0.0015174
Loading maneuver chart data...
Computing Atmospheric mass density...
Loading historical data...
Loading historical data...
Loading historical data...
Loading historical data...
Loading historical data...
Loading historical data...
Loading historical data...

Documentation

Showing up to 5 results
|